www.pogodaiklimat.ru

Погода и климат >> Архив погоды >> Норвегия >> Шиботн


ПОГОДА в Шиботне

  • Прогноз погоды в Шиботне
  • Монитор погоды в Шиботне

АРХИВ ПОГОДЫ в Шиботне

Время (UTC), дата Ветер
(напр.,м/с)
 
Видим.   Явления Облачность Т
(С)
Тd
(С)
f
(%)
Тe
(С)
Тes
(С)
Комфортность P
(гПа)
Po
(гПа)
Тmin
(С)
Tmax
(С)
R
(мм)
R24
(мм)
S
(см)
10 12.06 З 2-4
{5}
н/о н/о +12.8 +0.6 43 +12 +12 1029.1 1026.8
11 12.06 З 2-4
{5}
н/о н/о +12.7 +1.7 47 +12 +12 1028.4 1026.0
12 12.06 З 2-4
{5}
н/о н/о +12.7 +2.3 49 +12 +12 1028.0 1025.7
13 12.06 З 3-6
{6}
н/о н/о +13.3 +2.6 48 +12 +12 1027.6 1025.2
14 12.06 З 2-4
{5}
н/о н/о +12.5 +2.7 51 +12 +12 1027.2 1024.9
15 12.06 СЗ 3-6
{6}
н/о н/о +13.6 +2.8 48 +13 +13 1026.9 1024.5
16 12.06 СЗ 2-5
{6}
н/о н/о +12.7 +2.6 50 +12 +12 1026.5 1024.1
17 12.06 СЗ 3-5
{6}
н/о н/о +13.1 +2.9 50 +12 +12 1026.2 1023.9
18 12.06 СЗ 2-5
{6}
н/о н/о +11.9 +3.4 56 +11 +11 1026.2 1023.8 +8.3 +14.1
19 12.06 СЗ 3-5
{5}
н/о н/о +11.0 +3.1 58 +9 +9 1026.1 1023.7
20 12.06 С 2-4
{6}
н/о н/о +10.2 +3.3 62 +9 +9 1026.2 1023.8
21 12.06 В 2-4
{5}
н/о н/о +8.7 +4.0 72 +7 +7 1026.3 1023.9
22 12.06 В 1-2
{4}
н/о н/о +7.7 +3.6 75 +7 +7 1026.3 1023.9
23 12.06 СВ 1-1
{2}
н/о н/о +5.9 +3.1 82 +5 +5 1026.2 1023.7
00 13.06 СВ 1-1
{6}
н/о н/о +5.2 +2.9 85 +4 +4 1025.9 1023.5 0.2
01 13.06 ЮВ 1-1
{1}
н/о н/о +5.4 +3.3 86 +4 +4 1025.7 1023.3
02 13.06 штиль 0-1
{1}
н/о н/о +6.1 +3.9 86 +5 +5 1025.7 1023.2
03 13.06 СЗ 1-1
{1}
н/о н/о +8.2 +5.3 82 +7 +7 1025.4 1023.0
04 13.06 Ю 1-2
{2}
н/о н/о +8.3 +4.3 76 +8 +8 1025.3 1022.9
05 13.06 СВ 1-2
{2}
н/о н/о +9.5 +4.1 69 +9 +9 1025.3 1022.9
06 13.06 З 2-3
{5}
н/о н/о +11.1 +5.0 66 +10 +10 1025.0 1022.6 +5.1 +12.1 0.2
07 13.06 СЗ 2-4
{4}
н/о н/о +12.6 +5.3 61 +12 +12 1024.8 1022.4
08 13.06 З 3-6
{6}
н/о н/о +12.2 +4.9 61 +11 +11 1024.8 1022.4
09 13.06 СЗ 3-5
{5}
н/о н/о +13.6 +4.2 53 +13 +13 1024.7 1022.3
10 13.06 З 3-6
{6}
н/о н/о +15.3 +5.3 51 +15 +15 1024.3 1021.9
11 13.06 СЗ 3-5
{6}
н/о н/о +16.8 +5.5 47 +17 +17 1024.0 1021.7
12 13.06 СЗ 3-7
{7}
н/о н/о +16.6 +5.0 46 +16 +16 1023.7 1021.4
13 13.06 СЗ 3-8
{8}
н/о н/о +16.9 +4.9 45 +17 +17 1023.6 1021.2
14 13.06 СЗ 3-6
{7}
н/о н/о +16.5 +4.9 46 +16 +16 1023.4 1021.1
15 13.06 З 3-6
{8}
н/о н/о +15.8 +5.1 49 +15 +15 1023.5 1021.2
16 13.06 С 3-7
{8}
н/о н/о +14.4 +4.7 52 +14 +14 1023.7 1021.4
17 13.06 СЗ 3-8
{8}
н/о н/о +14.3 +4.6 52 +14 +14 1023.7 1021.3
18 13.06 С 3-7
{8}
н/о н/о +13.5 +4.9 56 +13 +13 1023.8 1021.4 +10.5 +17.3
19 13.06 Ю 1-2
{6}
н/о н/о +11.4 +4.6 63 +11 +11 1024.0 1021.7
20 13.06 В 2-3
{4}
н/о н/о +9.9 +4.9 71 +9 +9 1024.0 1021.6
21 13.06 штиль 0-2
{3}
н/о н/о +8.6 +4.4 75 +8 +8 1024.4 1022.0
22 13.06 С 1-1
{3}
н/о н/о +6.9 +3.9 81 +6 +6 1024.9 1022.5
23 13.06 С 1-2
{3}
н/о н/о +5.9 +3.8 86 +5 +5 1024.7 1022.3
00 14.06 С 1-2
{6}
н/о н/о +4.4 +2.6 88 +3 +3 1024.8 1022.3 0.2
01 14.06 штиль 0-1
{2}
н/о н/о +5.0 +3.5 90 +4 +4 1024.4 1022.0
02 14.06 В 1-1
{1}
н/о н/о +6.6 +5.1 90 +5 +5 1024.0 1021.6
03 14.06 ЮЗ 1-2
{2}
н/о н/о +7.2 +5.0 86 +6 +6 1023.8 1021.3
04 14.06 ЮЗ 1-2
{2}
н/о н/о +7.6 +4.9 83 +7 +7 1023.3 1020.9
05 14.06 ЮВ 1-2
{2}
н/о н/о +8.0 +5.0 81 +7 +7 1022.7 1020.3
06 14.06 З 2-3
{3}
н/о н/о +8.4 +4.6 77 +7 +7 1022.4 1020.0 +4.2 +13.4 0.2
07 14.06 З 2-4
{4}
н/о н/о +9.3 +4.9 74 +8 +8 1022.4 1020.0
08 14.06 СЗ 2-5
{5}
н/о н/о +10.0 +5.0 71 +9 +9 1022.5 1020.1
09 14.06 СЗ 2-4
{5}
н/о н/о +11.6 +5.7 67 +11 +11 1022.0 1019.6
10 14.06 З 2-4
{5}
н/о н/о +12.2 +5.4 63 +11 +11 1021.4 1019.1
11 14.06 З 4-7
{7}
н/о н/о +13.7 +6.1 60 +12 +12 1020.8 1018.4
12 14.06 З 4-8
{8}
н/о н/о +14.3 +5.9 57 +13 +13 1020.5 1018.1
13 14.06 СЗ 4-7
{9}
н/о н/о +15.1 +4.5 49 +14 +14 1020.1 1017.8
14 14.06 СЗ 3-7
{8}
н/о н/о +14.1 +3.6 49 +13 +13 1020.1 1017.8
15 14.06 З 4-8
{8}
н/о н/о +13.5 +3.0 49 +12 +12 1019.7 1017.3
16 14.06 З 4-8
{8}
н/о н/о +12.0 +3.0 54 +10 +10 1019.7 1017.3
17 14.06 З 3-6
{8}
н/о н/о +12.0 +3.8 57 +11 +11 1020.0 1017.6
18 14.06 СЗ 3-6
{9}
н/о н/о +11.4 +3.2 57 +10 +10 1019.8 1017.5 +8.4 +15.1
19 14.06 СЗ 3-6
{6}
н/о н/о +9.6 +3.2 64 +8 +8 1020.0 1017.6
20 14.06 С 2-4
{5}
н/о н/о +8.8 +3.9 71 +7 +7 1020.4 1018.0
21 14.06 СВ 2-3
{4}
н/о н/о +7.7 +3.8 76 +6 +6 1020.5 1018.1
22 14.06 СВ 1-2
{3}
н/о н/о +5.2 +2.6 83 +4 +4 1020.9 1018.4
23 14.06 штиль 0-1
{2}
н/о н/о +3.9 +1.9 87 +3 +3 1020.9 1018.5
00 15.06 штиль 0-1
{6}
н/о н/о +3.0 +1.4 89 +2 +2 1020.9 1018.4 0.2
01 15.06 В 1-1
{2}
н/о н/о +2.7 +1.2 90 +1 +1 1020.7 1018.3
02 15.06 штиль 0-1
{2}
н/о н/о +3.8 +2.6 92 +3 +3 1020.5 1018.1
03 15.06 Ю 1-1
{1}
н/о н/о +5.4 +3.9 90 +4 +4 1020.2 1017.8
04 15.06 Ю 1-2
{2}
н/о н/о +6.5 +4.2 85 +5 +5 1020.0 1017.6
05 15.06 З 1-2
{3}
н/о н/о +7.2 +4.2 81 +6 +6 1019.6 1017.2
06 15.06 З 2-4
{4}
н/о н/о +8.5 +4.3 75 +7 +7 1019.5 1017.1 +2.2 +11.6 0.2
07 15.06 СЗ 2-4
{4}
н/о н/о +9.3 +4.1 70 +8 +8 1019.1 1016.7
08 15.06 СЗ 1-3
{4}
н/о н/о +11.6 +5.5 66 +12 +12 1019.1 1016.7
09 15.06 З 2-4
{4}
н/о н/о +12.0 +4.5 60 +11 +11 1018.6 1016.3
10 15.06 СЗ 2-4
{4}
н/о н/о +13.8 +4.4 53 +13 +13 1018.2 1015.8
11 15.06 З 2-5
{5}
н/о н/о +15.3 +4.1 47 +15 +15 1017.7 1015.3
12 15.06 З 2-4
{5}
н/о н/о +14.6 +6.5 58 +14 +14 1017.0 1014.7
13 15.06 З 2 н/о н/о +16.3 +5.6 49 +17 +17 1016.5 1014.1
14 15.06 З 3-5
{5}
н/о н/о +16.4 +6.5 52 +16 +16 1016.0 1013.6
15 15.06 СЗ 3-5
{6}
н/о н/о +16.7 +5.7 48 +17 +17 1015.6 1013.3
16 15.06 ЮВ 2-3
{6}
н/о н/о +15.8 +6.8 55 +16 +16 1015.2 1012.9
17 15.06 Ю 1-3
{4}
н/о н/о +16.6 +6.7 52 +18 +18 1015.1 1012.8
18 15.06 З 3-7
{8}
н/о н/о +13.4 +6.7 64 +12 +12 1015.3 1012.9 +8.5 +18.4
19 15.06 СЗ 3-6
{6}
н/о н/о +11.7 +6.2 69 +10 +10 1015.0 1012.6
20 15.06 Ю 1-3
{4}
н/о н/о +11.5 +6.4 71 +11 +11 1014.9 1012.6
21 15.06 Ю 1-2
{5}
н/о н/о +10.1 +5.9 75 +10 +10 1015.2 1012.8
22 15.06 ЮВ 1-2
{4}
н/о н/о +8.8 +5.4 79 +8 +8 1015.4 1013.0
23 15.06 СВ 2-3
{3}
н/о н/о +7.8 +5.1 83 +6 +6 1015.5 1013.1
00 16.06 В 1-2
{6}
н/о н/о +5.7 +3.7 87 +5 +5 1015.6 1013.2
01 16.06 СЗ 1-1
{2}
н/о н/о +5.2 +3.5 89 +4 +4 1015.7 1013.3
02 16.06 СВ 1-2
{2}
н/о н/о +5.1 +3.6 90 +4 +4 1016.1 1013.7
03 16.06 С 1-1
{1}
н/о н/о +5.8 +4.5 91 +5 +5 1016.0 1013.6
04 16.06 В 1-2
{2}
н/о н/о +8.1 +5.4 83 +7 +7 1016.0 1013.6
05 16.06 СЗ 3-6
{6}
н/о н/о +10.5 +4.4 66 +9 +9 1016.0 1013.6
06 16.06 СЗ 2-5
{6}
н/о н/о +10.4 +4.3 66 +9 +9 1016.3 1013.9 +4.8 +13.6
07 16.06 СЗ 2-4
{4}
н/о н/о +11.3 +5.0 65 +10 +10 1016.4 1014.1
08 16.06 З 3-5
{5}
н/о н/о +11.1 +4.6 64 +9 +9 1016.6 1014.2
09 16.06 СЗ 2-4
{5}
н/о н/о +13.2 +4.9 57 +13 +13 1016.5 1014.2
10 16.06 СЗ 2-5
{5}
н/о н/о +13.7 +4.8 55 +13 +13 1016.2 1013.8
11 16.06 СЗ 3-5
{7}
н/о н/о +14.2 +4.8 53 +13 +13 1015.7 1013.4
12 16.06 З 3-7
{7}
н/о н/о +14.7 +5.2 53 +14 +14 1015.4 1013.1
13 16.06 З 4-8
{8}
н/о н/о +14.4 +3.6 48 +13 +13 1015.1 1012.8
14 16.06 СЗ 3-7
{8}
н/о н/о +15.0 +2.9 44 +14 +14 1014.9 1012.6
15 16.06 СЗ 3-8
{8}
н/о н/о +14.8 +3.0 45 +14 +14 1014.6 1012.2
16 16.06 С 3-6
{8}
н/о н/о +13.6 +2.5 47 +13 +13 1014.6 1012.2
17 16.06 СЗ 2-6
{7}
н/о н/о +14.0 +3.5 49 +14 +14 1014.3 1011.9
18 16.06 С 3-6
{8}
н/о н/о +13.1 +2.9 50 +12 +12 1014.1 1011.7 +10.4 +15.2
19 16.06 СВ 2-4
{5}
н/о н/о +10.7 +4.8 67 +10 +10 1014.0 1011.6
20 16.06 В 2-4
{4}
н/о н/о +9.4 +4.8 73 +8 +8 1013.9 1011.6
21 16.06 СВ 1-1
{4}
н/о н/о +7.8 +4.2 78 +7 +7 1013.7 1011.3
22 16.06 В 1-2
{2}
н/о н/о +6.2 +3.7 84 +5 +5 1013.5 1011.1
23 16.06 В 1-2
{2}
н/о н/о +4.9 +2.9 87 +4 +4 1013.4 1011.0
00 17.06 штиль 0-1
{5}
н/о н/о +3.9 +2.1 88 +3 +3 1013.2 1010.8 0.2
01 17.06 ЮВ 1-1
{1}
н/о н/о +3.1 +1.6 90 +1 +1 1013.0 1010.6
02 17.06 В 1-2
{2}
н/о н/о +3.2 +1.9 91 +2 +2 1012.5 1010.0
03 17.06 В 1-1
{2}
н/о н/о +4.8 +3.6 92 +3 +3 1012.1 1009.6
04 17.06 В 1-1
{1}
н/о н/о +6.9 +5.1 88 +6 +6 1011.7 1009.3
05 17.06 ЮЗ 1-2
{2}
н/о н/о +9.8 +5.4 74 +9 +9 1011.5 1009.2
06 17.06 З 2-2
{2}
н/о н/о +11.2 +5.1 66 +10 +10 1010.9 1008.5 +3.0 +13.3 0.2
07 17.06 З 2-4
{4}
н/о н/о +12.2 +4.4 59 +11 +11 1010.6 1008.2
08 17.06 З 2-4
{6}
н/о н/о +12.5 +4.5 58 +12 +12 1010.4 1008.1
09 17.06 З 3-5
{6}
н/о н/о +14.7 +4.1 49 +14 +14 1010.1 1007.7
10 17.06 СЗ 3-6
{7}
н/о н/о +15.3 +3.8 46 +15 +15 1009.8 1007.4
11 17.06 СЗ 3-7
{7}
н/о н/о +16.3 +1.6 37 +16 +16 1009.7 1007.4
12 17.06 СЗ 3-6
{7}
н/о н/о +16.6 +2.6 39 +16 +16 1009.8 1007.4
13 17.06 СЗ 4-8
{8}
н/о н/о +16.3 +3.4 42 +16 +16 1009.7 1007.4
14 17.06 СЗ 3-6
{7}
н/о н/о +16.1 +3.2 42 +16 +16 1009.9 1007.6
15 17.06 СЗ 3-6
{8}
н/о н/о +16.0 +3.8 44 +16 +16 1009.8 1007.5
16 17.06 СЗ 3-6
{7}
н/о н/о +13.9 +3.1 48 +13 +13 1009.9 1007.5
17 17.06 З 3-5
{6}
н/о н/о +14.2 +3.7 49 +13 +13 1010.0 1007.7
18 17.06 ЮВ 1-3
{8}
н/о н/о +12.0 +3.8 57 +12 +12 1010.2 1007.9 +11.1 +16.9
19 17.06 СЗ 2-4
{5}
н/о н/о +10.8 +4.1 63 +10 +10 1010.2 1007.9
20 17.06 В 1-2
{4}
н/о н/о +10.6 +4.7 67 +10 +10 1010.5 1008.1
21 17.06 В 1-2
{3}
н/о н/о +9.4 +4.4 71 +9 +9 1010.9 1008.5
22 17.06 ЮВ 1-2
{2}
н/о н/о +8.7 +4.3 74 +8 +8 1010.9 1008.5
23 17.06 В 1-2
{2}
н/о н/о +8.1 +4.5 78 +7 +7 1011.0 1008.6
00 18.06 В 1-3
{5}
н/о н/о +8.2 +4.8 79 +8 +8 1011.2 1008.8
01 18.06 штиль 0
{3}
н/о н/о +8.3 +4.9 79 +8 +8 1011.0 1008.6
02 18.06 штиль 0-1
{2}
н/о н/о +8.2 +5.0 80 +7 +7 1010.9 1008.5
03 18.06 ЮВ 1-2
{2}
н/о н/о +8.4 +5.0 79 +8 +8 1010.8 1008.4
04 18.06 Ю 1-2
{2}
н/о н/о +8.9 +5.1 77 +8 +8 1010.7 1008.3
05 18.06 -1
{2}
н/о н/о +9.4 +5.2 75 1010.3 1008.0
06 18.06 СЗ 2-3
{4}
н/о н/о +10.5 +5.1 69 +9 +9 1009.9 1007.6 +8.0 +12.1
07 18.06 СЗ 1-2
{3}
н/о н/о +10.7 +5.1 68 +11 +11 1009.6 1007.2
08 18.06 З 2-4
{4}
н/о н/о +13.1 +4.0 54 +13 +13 1009.1 1006.8
09 18.06 СЗ 2-4
{4}
н/о н/о +13.1 +4.3 55 +13 +13 1008.8 1006.5
10 18.06 СЗ 2-4
{4}
н/о н/о +13.6 +4.5 54 +13 +13 1008.4 1006.1
11 18.06 Ю 1-3
{4}
н/о н/о +12.6 +4.8 59 +13 +13 1008.6 1006.2
12 18.06 З 1-2
{4}
н/о н/о +11.8 +6.1 68 +12 +12 1008.7 1006.3
13 18.06 В 1-1
{2}
н/о н/о +12.6 +6.0 64 +13 +13 1008.4 1006.0
14 18.06 ЮЗ 1-2
{2}
н/о н/о +12.2 +6.9 70 +12 +12 1008.4 1006.1
15 18.06 ЮВ 1-2
{2}
н/о н/о +10.2 +7.6 84 +10 +10 1008.4 1006.0
16 18.06 З 1-2
{2}
н/о н/о +10.8 +8.4 85 +10 +10 1008.2 1005.8
17 18.06 ЮВ 1-2
{2}
н/о н/о +10.4 +8.0 85 +10 +10 1008.1 1005.7
18 18.06 В 1-2
{3}
н/о н/о +9.8 +7.7 87 +9 +9 1008.2 1005.8 +9.8 +14.8 1
19 18.06 Ю 1-1
{2}
н/о н/о +9.2 +7.3 88 +9 +9 1008.1 1005.7
20 18.06 штиль 0-1
{2}
н/о н/о +8.7 +6.8 88 +8 +8 1008.2 1005.8
21 18.06 ЮВ 1-1
{2}
н/о н/о +8.4 +6.9 90 +8 +8 1008.2 1005.8
22 18.06 В 1-2
{2}
н/о н/о +8.2 +6.8 91 +7 +7 1008.1 1005.7
23 18.06 ЮВ 1-2
{2}
н/о н/о +8.1 +6.7 91 +7 +7 1008.1 1005.7
00 19.06 штиль 0-1
{2}
н/о н/о +8.0 +6.8 92 +7 +7 1008.1 1005.7 0.9
01 19.06 штиль 0-1
{1}
н/о н/о +7.9 +6.7 92 +7 +7 1008.1 1005.7
02 19.06 В 1-1
{1}
н/о н/о +7.9 +6.7 92 +7 +7 1008.1 1005.7
03 19.06 штиль 0-1
{1}
н/о н/о +8.0 +6.8 92 +7 +7 1008.2 1005.8
05 19.06 штиль 0-1
{1}
н/о н/о +8.4 +7.0 91 +7 +7 1008.4 1006.0
06 19.06 З 1-2
{2}
н/о н/о +9.0 +7.5 90 +8 +8 1008.3 1006.0 +7.8 +9.8 1
07 19.06 З 1-2
{3}
н/о н/о +9.2 +7.3 88 +9 +9 1008.6 1006.2
08 19.06 З 2-3
{4}
н/о н/о +9.9 +7.5 85 +8 +8 1008.9 1006.5

 

Местоположение метеостанции Шиботн (Норвегия): широта 69.38 долгота 20.28 высота над уровнем моря 20 м.

В архиве по умолчанию представлена погода в Шиботне за последнюю неделю. Архивные данные за месяц целиком и за предыдущие месяцы, начиная с января 2011 года, Вы можете получить, выбрав интересующий диапазон дат из раскрывающегося списка и нажав кнопку "Ввод!".


*Определитесь, кто Вы:
робот инопланетянин человек

Внимание! Время в таблицах - всемирное. Для получения местного времени необходимо прибавить поправку, которая равна 1 ч.

Смотрите также архив погоды в соседних городах и на ближайших метеорологических станциях:

Погода в Люнгене (Норвегия) (21 км)
Погода в Норднесфьеллете (Норвегия) (22 км)
Погода в Килписйарви (Финляндия) (42 км)
Погода на Саане (Финляндия) (43 км)
Погода в Сёрхьюсен аэропорту (Норвегия) (53 км)
Погода в Тромсё (Норвегия) (60 км)
Погода в Тромсё (Холт) (Норвегия) (61 км)
Погода в Тромсё аэропорту (Норвегия) (63 км)
Погода в Дивидалене (Норвегия) (71 км)
Погода в Бардуфоссе (Норвегия) (77 км)

Пояснения к столбцам:

Ветер - указаны скорость ветра в м/с - средняя за 10 мин, порывы в срок и между сроками (в фигурных скобках) и направление, откуда дует ветер: С - северный, СВ - северо-восточный, В - восточный, ЮВ - юго-восточный, Ю - южный, ЮЗ - юго-западный, З - западный, СЗ - северо-западный.
Видимость - горизонтальная дальность видимости в метрах или километрах. При видимости от 1 до 10 км при отсутствии осадков обычно наблюдается дымка, при ухудшении видимости до 1 км и менее - туман. В сухую погоду видимость может ухудшаться дымом, пылью или мглою.
Явления - указаны атмосферные явления, наблюдавшиеся в срок или в последний час перед сроком; фигурными скобками обозначены явления, наблюдавшиеся между сроками (за 1-3 часа до срока); квадратными скобками обозначены град или гололедные отложения с указанием их диаметра в мм.
Облачность - указаны через наклонную черту общая и нижняя облачность в баллах и высота нижней границы облаков в метрах; квадратными скобками обозначены формы облаков: Ci - перистые, Cs - перисто-слоистые, Cc - перисто-кучевые, Ac - высококучевые, As - высокослоистые, Sc - слоисто-кучевые, Ns - слоисто-дождевые, Cu - кучевые, Cb - кучево-дождевые. Подробнее классификацию облаков см. в Атласе облаков (PDF).
T - Температура воздуха - температура, измеренная на высоте 2 м над землей.
Td - Температура точки росы - температура, при понижении до которой содержащийся в воздухе водяной пар достигнет насыщения.
f - Относительная влажность воздуха - влажноcть воздуха, измеренная на высоте 2 м над землей.
Te - Эффективная температура - температура, которую ощущает одетый по сезону человек в тени. Характеристика душности погоды. При расчете учитывается влияние влажности воздуха и скорости ветра на теплоощущения человека.
Tes - Эффективная температура на солнце - температура, которую ощущает человек, с поправкой на солнечный нагрев. Характеристика знойности погоды. Зависит от высоты солнца над горизонтом, облачности и скорости ветра. Ночью, в пасмурную погоду, а также при ветре 12 м/с и более поправка равна нулю.
P - Атмосферное давление - приведенное к уровню моря атмосферное давление.
Po - Атмосферное давление - измеренное на уровне метеостанции атмосферное давление.
Tmin - Минимальная температура - минимум температуры воздуха на высоте 2 м над землей.
Tmax - Максимальная температура - максимум температуры воздуха на высоте 2 м над землей.
R - Количество осадков - Количество выпавших осадков за период времени, мм. При наведении курсора мыши на число - период времени, за который выпало указанное количество осадков.
R24 - Количество осадков - Количество выпавших осадков за 24 часа, мм.
S - Снежный покров - Высота снежного покрова, см. При наведении курсора мыши на число - состояние снежного покрова и степень покрытия местности в баллах.